Wind_Speed
17 18 18 18 17 17 17 18 18 17 17 18 18 19 19 19 19 19 19 19 18 18 18 17 17 17 17 18 19 20 21 21 21 21 21 21 21 22 22 24 24 24 23 23 24 25 26 25 23 22 21 18 15 13 13 14 15 16 16 16 15 14 14 14 13 12 12 12 13 13 15 16 18 19 19 19 18 18 17 17 16 16 15 14 13 12
16 17 18 19 19 19 19 20 20 19 18 18 19 19 19 20 20 20 20 20 19 19 19 19 18 18 18 18 19 20 21 21 21 20 21 21 21 21 23 24 24 23 23 23 25 26 26 24 23 21 19 16 14 14 14 14 15 16 16 16 16 15 15 14 13 12 12 13 14 15 15 15 17 18 19 19 18 17 17 16 16 16 15 14 13 12
14 15 17 18 19 19 19 20 20 19 18 18 18 19 20 20 20 21 21 21 21 20 20 20 19 18 18 18 19 20 21 21 21 20 21 21 21 21 23 24 24 24 23 24 25 26 26 24 22 19 17 15 14 13 13 13 14 15 16 16 16 16 16 15 14 13 13 14 15 16 17 16 16 16 16 17 17 17 16 16 16 16 15 14 13 12
14 14 16 17 18 19 19 18 18 18 17 18 18 19 20 20 21 21 21 21 21 21 21 20 20 19 19 19 19 20 21 21 21 21 21 22 22 22 24 25 25 25 25 26 27 27 26 24 21 18 17 15 13 12 11 11 12 13 15 15 16 16 17 16 15 14 15 16 17 18 18 17 17 16 15 15 15 15 15 15 15 15 14 13 12 12
14 14 16 17 18 18 19 18 17 17 17 17 18 19 20 21 21 22 22 22 22 22 22 21 20 19 19 19 20 20 20 20 20 21 21 22 23 24 25 26 27 27 27 28 28 27 26 23 20 18 16 15 13 12 11 11 12 13 14 14 15 16 16 16 16 16 18 18 19 18 17 17 16 15 15 14 14 14 13 13 13 13 13 12 11 11
14 15 17 17 18 19 19 18 17 17 17 18 18 19 20 21 21 22 22 23 22 22 22 21 20 19 19 19 19 19 19 19 19 19 20 21 24 25 26 27 27 28 28 29 28 27 25 22 20 18 16 14 13 12 12 11 11 12 13 14 15 15 16 16 17 18 19 20 19 18 17 16 15 15 14 13 13 13 13 13 13 12 12 12 11 10
15 16 18 18 19 20 19 19 18 18 18 18 19 20 20 21 21 22 22 23 22 22 21 20 19 18 18 18 18 18 18 18 18 18 18 20 23 26 27 27 27 28 28 28 27 25 22 20 18 17 15 14 13 12 12 11 11 12 13 14 15 15 16 17 19 20 20 20 20 19 18 17 16 16 15 14 14 13 12 12 12 11 11 11 11 11
16 17 18 18 19 19 20 20 20 19 19 19 19 20 21 21 22 22 22 22 22 21 20 19 18 17 17 17 17 17 18 17 17 16 17 20 23 25 26 27 27 27 27 27 25 23 20 19 17 16 14 13 12 12 11 11 11 12 13 14 15 16 17 19 20 21 21 21 20 20 19 18 18 17 17 17 16 15 13 12 11 11 10 10 10 11
17 17 18 18 18 18 18 20 21 21 20 19 19 19 20 21 22 22 22 22 22 21 21 19 19 18 17 17 17 17 18 17 16 17 19 21 23 25 25 26 26 26 26 25 23 21 19 18 16 15 14 13 12 12 11 12 12 13 14 16 17 18 19 20 21 21 22 21 21 20 20 19 19 19 18 17 16 15 14 12 11 10 10 10 9 10
19 18 18 19 19 19 18 19 21 21 20 19 19 19 19 20 20 21 21 22 23 23 22 21 21 20 20 18 18 18 18 17 17 18 20 23 24 25 26 26 26 26 25 24 22 20 18 17 16 15 14 13 12 12 12 13 13 14 16 17 18 20 20 21 21 21 21 21 20 20 20 19 19 18 17 16 15 14 13 12 11 11 11 10 10 10
18 18 17 17 18 19 19 19 20 21 20 19 20 21 21 21 20 18 17 19 21 23 23 23 23 22 22 21 20 18 18 17 17 19 21 24 25 26 27 27 27 26 25 23 21 20 18 17 16 15 14 14 14 14 14 14 14 15 17 18 20 21 22 22 22 21 21 20 19 19 19 18 18 17 16 15 14 13 12 12 12 12 12 12 12 12
16 16 16 16 15 15 17 19 20 20 20 18 17 18 20 22 21 19 17 17 18 19 21 22 23 23 23 22 21 19 18 17 18 20 22 24 25 26 27 27 26 25 24 22 20 19 18 17 17 16 15 15 15 15 15 15 16 16 18 20 21 22 22 22 22 21 20 19 18 17 17 17 16 15 15 14 14 13 13 13 14 14 15 15 15 15
17 16 15 15 15 15 15 16 17 18 18 17 16 16 17 18 19 19 19 19 19 18 18 20 22 23 23 22 21 20 18 18 19 21 23 24 26 26 27 26 26 24 22 20 19 18 18 17 17 17 17 16 16 16 16 16 17 18 19 21 22 22 22 22 21 20 19 18 17 16 16 15 15 15 14 14 14 15 15 16 16 17 17 17 18 18
15 15 14 13 14 15 15 15 15 16 16 18 18 18 17 16 17 18 19 20 20 19 18 18 20 22 22 21 20 19 18 18 20 22 24 25 26 27 27 27 26 25 23 20 19 19 18 19 19 18 18 18 17 17 17 18 19 20 21 22 22 22 21 20 19 19 17 16 15 15 14 14 14 14 15 15 16 17 17 18 18 19 19 19 18 18
14 13 12 12 13 15 15 15 16 17 18 19 19 19 18 17 17 17 17 17 18 18 17 17 18 20 21 21 20 19 18 19 21 22 23 24 26 27 27 27 26 25 23 21 21 20 20 20 21 21 20 19 19 18 18 19 20 21 22 22 22 22 21 20 19 18 17 16 15 14 14 14 15 15 16 16 17 17 18 19 19 19 19 18 18 16
15 14 13 13 14 16 17 16 16 17 19 19 19 19 18 17 17 17 16 16 16 15 13 13 13 14 17 19 19 19 19 21 21 22 22 23 24 26 26 27 26 25 23 22 22 22 22 22 22 22 22 21 19 19 18 19 20 21 22 22 22 21 20 19 18 17 16 15 14 14 14 14 15 15 16 16 17 17 18 18 18 18 18 17 16 15
16 15 15 14 15 16 17 17 18 18 19 18 19 19 19 18 18 17 16 16 15 13 12 11 7 5 7 12 16 19 20 22 22 22 21 22 23 25 25 26 26 26 24 23 24 24 24 24 24 24 23 21 20 19 19 19 20 21 22 22 21 21 20 19 18 17 16 15 14 14 14 15 15 16 16 16 16 16 16 16 16 16 15 14 13 13
16 16 16 16 16 17 17 17 18 19 19 18 19 19 19 20 19 19 18 17 15 14 13 12 9 6 4 6 10 16 21 23 23 21 20 21 23 24 25 25 26 26 25 25 25 26 26 26 26 25 24 22 21 20 20 20 20 21 21 21 21 20 19 19 18 17 16 15 15 14 14 15 15 16 16 16 15 15 14 14 13 12 12 11 11 11
16 17 17 18 19 19 18 18 18 18 18 18 18 18 18 19 19 19 19 19 18 16 15 13 12 12 10 9 11 14 19 23 24 21 19 19 22 24 25 25 25 25 26 26 26 27 27 27 27 25 24 23 21 20 20 20 21 21 21 20 20 19 18 18 17 16 15 15 14 14 14 14 15 15 15 14 13 12 12 11 10 10 9 9 10 10
19 19 20 20 20 19 18 19 19 19 19 18 18 18 18 19 19 19 19 19 19 18 17 15 15 15 15 14 13 14 17 22 24 22 19 18 20 23 25 25 25 25 26 26 27 27 28 28 27 26 24 23 22 21 21 21 21 20 20 19 18 17 16 16 15 14 13 12 12 12 12 12 13 13 13 12 11 10 10 10 9 9 8 8 9 10
20 21 22 21 20 18 18 20 21 21 20 20 20 20 20 19 18 18 18 18 18 18 17 16 17 17 17 15 15 16 17 21 23 22 19 18 18 21 24 25 25 25 25 26 27 28 28 28 28 27 25 24 23 22 21 21 20 20 19 18 16 15 14 13 12 11 11 10 10 11 11 11 11 11 11 10 10 10 9 9 9 9 8 8 9 10
23 23 25 24 23 21 20 20 21 20 20 20 21 21 20 18 17 18 18 19 18 18 18 18 19 19 19 18 17 18 18 20 23 23 18 15 16 19 24 25 25 24 24 26 27 28 28 28 28 27 26 25 24 23 22 21 20 19 18 16 15 13 12 12 11 10 10 9 9 10 10 11 11 11 11 10 10 9 9 9 9 9 8 8 9 10
28 27 27 27 26 26 25 23 21 20 20 21 22 22 21 20 20 20 20 21 20 20 20 21 21 21 20 20 19 19 18 20 23 23 19 14 13 18 22 25 25 24 23 25 26 28 28 28 28 28 27 25 24 24 23 22 20 18 17 15 14 13 12 11 11 10 9 9 9 9 10 11 11 11 11 10 10 10 10 10 9 9 8 8 9 9
32 31 30 29 28 28 27 25 23 22 22 22 22 23 23 22 22 22 22 22 22 22 21 22 21 19 19 19 19 19 19 20 21 22 20 16 15 17 20 24 25 24 23 24 25 27 28 28 29 29 28 25 24 24 23 21 20 18 16 15 14 13 12 12 11 10 9 9 9 10 11 12 12 11 11 10 10 10 10 10 10 9 9 9 9 9
31 31 30 30 29 29 28 27 26 25 24 24 24 23 23 23 23 23 22 21 20 20 20 18 16 14 16 17 17 18 20 20 22 22 20 16 15 16 19 23 25 24 22 23 25 26 27 28 29 29 28 26 24 22 22 21 19 17 16 15 14 14 13 12 11 10 10 9 9 10 12 12 12 12 11 11 10 10 10 10 10 10 9 9 9 9
33 32 31 31 30 30 29 29 28 27 27 26 25 25 24 23 23 22 21 20 19 19 17 13 12 12 14 14 15 17 20 21 23 24 22 17 13 14 18 22 25 25 22 22 23 25 26 28 29 29 29 27 24 21 20 19 18 17 16 16 15 14 13 13 12 11 11 10 10 11 12 13 13 12 12 11 11 11 11 11 10 10 10 9 9 9
36 35 34 33 32 31 30 29 29 28 28 27 27 26 24 23 21 20 18 19 20 19 16 12 9 9 12 12 14 17 20 22 24 26 27 21 15 12 17 21 25 25 23 22 22 24 25 27 28 29 28 27 25 22 20 19 18 17 17 16 16 15 14 13 13 12 12 11 11 12 13 13 13 13 12 12 11 11 11 11 11 11 10 10 9 9
36 37 36 35 34 33 32 31 30 29 28 27 27 26 24 23 21 19 18 20 20 19 17 13 9 7 8 10 13 16 19 22 25 28 28 24 16 12 17 21 24 25 22 20 21 23 24 26 27 28 28 27 25 23 21 19 19 18 18 17 17 16 15 14 14 13 13 12 12 13 14 14 13 13 12 12 12 11 11 11 11 11 11 10 11 11
36 36 36 36 36 35 34 33 32 30 29 27 26 25 25 24 23 22 22 21 20 19 18 17 14 11 10 11 12 14 17 21 25 28 30 24 16 13 17 20 23 24 22 18 16 18 21 24 26 28 28 27 25 24 23 22 20 19 18 18 17 16 16 15 15 14 13 13 13 14 14 14 14 13 13 12 12 12 12 12 12 12 12 11 12 12
34 35 35 35 35 35 34 33 33 32 30 29 27 26 26 26 26 26 25 23 21 20 19 18 17 14 11 8 7 8 12 19 25 29 30 24 16 13 17 20 24 25 23 16 9 7 13 20 25 28 28 27 26 25 24 24 23 21 19 18 17 17 16 15 15 15 14 14 14 14 15 14 14 14 13 13 13 12 12 12 12 12 13 12 12 12
33 33 34 34 34 34 33 33 33 32 31 30 29 28 27 27 27 26 25 25 24 23 21 19 17 15 13 8 4 3 6 17 24 28 30 26 19 16 18 21 24 26 26 19 9 1 4 11 20 26 28 27 26 26 25 25 24 23 21 20 18 17 17 16 16 15 15 15 15 15 15 15 15 14 14 13 13 13 13 12 12 12 13 13 12 12
32 32 32 33 33 33 33 32 32 32 32 31 30 29 28 28 28 27 27 27 27 26 23 21 19 18 18 14 10 6 6 15 23 28 30 26 21 18 20 21 23 25 27 24 16 7 3 4 12 22 27 28 27 27 26 26 25 24 22 21 20 19 18 17 16 16 16 15 15 15 15 15 15 15 14 14 13 13 13 12 12 13 13 13 12 12
31 31 31 32 32 32 32 32 31 31 31 31 30 30 29 29 29 29 29 30 30 29 27 24 21 19 19 19 17 14 13 15 20 26 29 28 22 18 20 21 22 23 25 24 19 12 6 6 8 13 22 27 29 28 27 26 25 24 23 22 21 20 19 18 17 17 17 16 16 16 16 16 16 15 15 14 14 13 13 12 12 13 13 12 12 11
29 29 29 29 30 30 30 30 30 30 30 30 30 30 30 29 29 29 30 31 32 31 30 28 25 22 20 18 17 17 17 16 19 23 27 29 25 21 21 21 22 22 23 22 18 13 7 7 7 8 12 23 29 29 28 27 26 25 23 23 22 21 20 19 19 18 18 18 17 17 16 16 16 16 15 15 14 14 13 13 12 12 12 12 11 11
26 26 25 25 26 27 28 28 29 29 29 29 30 30 30 29 29 29 30 32 33 33 33 31 30 27 25 21 18 17 19 20 20 22 24 30 29 25 23 22 23 23 22 20 18 13 8 8 9 9 8 15 23 27 29 29 27 26 24 23 23 22 22 21 21 20 20 19 19 18 17 17 17 17 16 16 15 14 14 13 12 12 12 11 11 10
23 23 23 23 23 24 24 26 26 27 28 28 29 30 30 29 29 29 30 32 33 33 33 33 32 31 29 27 24 22 23 24 23 22 23 28 30 28 24 23 24 24 22 20 19 16 11 10 11 11 11 11 14 20 26 29 28 27 25 25 24 23 23 23 22 22 21 21 20 19 19 18 18 18 17 16 15 14 14 13 12 12 11 11 10 9
22 21 21 21 22 22 22 23 24 25 27 28 29 29 29 28 28 29 30 31 32 33 33 33 32 31 30 29 28 26 25 25 24 22 23 25 28 29 26 24 25 26 25 22 20 18 15 12 10 10 10 10 10 13 19 26 28 27 27 26 25 24 24 24 23 23 22 22 21 20 19 19 19 19 19 17 16 14 13 12 12 12 11 10 9 9
21 20 20 21 21 22 22 22 23 25 26 27 27 28 28 27 27 28 29 30 31 32 32 32 32 31 30 29 27 26 24 23 23 22 22 23 26 28 28 26 26 27 28 25 23 21 18 14 9 7 8 8 9 13 17 23 26 27 27 27 27 26 25 25 24 24 23 22 21 20 20 20 20 21 21 20 18 16 15 14 14 13 12 10 10 9
20 20 20 21 22 22 22 23 24 25 26 26 26 26 26 26 27 27 27 28 29 30 31 31 31 31 30 29 27 25 24 22 21 21 20 21 23 26 28 27 26 27 28 27 25 23 21 18 14 11 9 8 9 12 16 21 25 27 27 26 26 26 26 26 25 24 24 23 22 21 21 21 21 22 22 21 20 18 17 16 16 15 14 13 12 11
19 20 20 22 23 24 25 25 25 25 25 25 25 25 25 26 26 27 27 27 27 28 29 30 31 30 30 28 26 25 23 22 20 19 19 19 21 23 26 27 27 27 27 27 25 24 22 20 19 17 15 13 11 12 15 19 23 26 25 22 20 23 27 27 26 25 24 24 23 22 22 22 22 23 23 22 21 19 18 17 17 16 16 15 14 14
20 20 21 22 23 25 25 26 25 24 24 24 24 24 24 25 26 26 26 26 26 27 28 29 29 29 28 27 25 24 22 21 19 19 18 18 19 21 24 26 27 27 27 27 26 24 23 21 19 18 17 16 15 14 16 19 23 24 24 21 20 22 26 27 26 25 25 24 24 24 23 23 24 24 23 22 21 20 18 17 16 16 16 16 16 15
20 20 22 22 23 24 24 24 24 24 24 24 24 24 25 26 26 26 25 24 25 25 26 27 26 25 23 23 22 22 21 20 20 19 19 18 18 19 22 25 26 27 27 26 25 24 23 22 20 18 18 18 16 14 14 17 21 23 23 22 21 21 22 25 26 25 25 25 25 24 24 24 25 24 24 22 21 20 18 17 16 15 15 15 16 16
21 22 22 22 22 23 23 23 23 24 24 24 24 25 25 26 26 26 25 24 24 24 25 25 24 23 21 19 19 19 20 20 20 20 19 18 17 18 21 24 25 26 26 25 23 23 23 22 20 19 19 19 18 16 15 16 19 21 22 22 21 17 13 20 25 26 25 25 25 25 25 25 25 25 24 23 21 20 19 17 16 15 15 15 15 16
21 22 22 22 22 22 23 23 24 24 24 24 24 24 25 25 26 25 24 24 24 24 23 23 23 21 19 17 17 17 18 19 19 19 19 18 18 18 21 23 25 25 25 24 23 22 21 20 19 19 19 19 18 17 17 17 19 21 22 22 22 20 17 20 25 28 26 25 25 25 25 25 25 24 24 23 22 21 20 18 17 16 16 16 16 16
21 21 21 22 22 22 23 24 24 25 24 24 24 24 25 25 25 24 23 23 23 22 22 22 20 18 15 15 15 15 17 18 19 19 19 19 18 19 21 23 24 24 24 23 23 22 21 20 19 18 18 18 18 18 17 18 19 20 22 23 23 22 22 21 25 28 28 27 26 26 25 25 24 24 24 23 22 21 20 19 18 17 17 16 16 16
21 21 21 22 22 23 24 24 24 24 24 23 23 24 24 25 25 24 23 22 22 22 22 21 19 16 14 14 14 15 15 15 17 19 20 20 20 20 21 22 23 22 21 21 21 21 22 22 22 20 18 18 18 18 18 18 19 20 21 23 23 22 21 19 22 26 29 29 28 27 26 25 24 24 24 23 23 22 21 20 19 18 17 17 17 16
21 21 21 22 22 23 23 23 23 23 22 22 22 23 24 25 24 23 22 22 22 22 21 20 19 17 16 16 16 15 15 15 16 17 19 20 20 20 20 21 20 20 19 18 18 19 19 20 21 21 20 18 17 17 18 19 20 21 22 23 23 22 20 20 21 24 27 28 28 28 27 25 24 24 24 23 22 21 21 20 19 19 18 18 17 17
21 22 22 22 22 21 21 22 22 21 21 21 21 22 23 24 24 23 22 22 22 21 20 19 17 16 15 16 17 17 17 17 17 17 19 20 20 20 20 19 19 18 17 17 17 17 17 18 19 20 21 20 17 16 18 19 20 21 22 24 23 22 21 22 21 22 25 27 28 28 27 26 25 25 24 23 22 21 21 21 20 19 18 18 18 17
22 22 22 22 21 20 20 21 21 21 20 20 20 21 22 24 24 23 23 23 22 21 19 18 16 15 14 15 16 17 17 17 17 18 19 20 20 20 19 19 18 17 16 16 16 16 16 16 17 18 20 20 19 19 19 20 20 21 22 23 23 22 22 22 22 21 22 24 26 27 27 26 26 25 24 22 21 21 21 21 20 19 19 18 18 17
22 23 23 22 21 21 20 21 21 21 21 20 21 21 22 23 23 23 23 23 22 21 20 19 17 16 14 15 15 16 16 16 16 17 18 20 21 21 20 20 19 17 16 14 13 13 13 13 14 17 19 19 19 19 20 21 21 21 21 22 23 22 22 22 22 21 20 21 23 24 25 25 25 24 23 22 21 21 21 20 20 19 18 18 17 17
21 22 22 22 22 21 21 21 21 21 21 21 21 22 22 22 22 22 22 22 21 20 20 19 18 17 16 16 16 16 17 17 17 17 18 20 21 22 21 21 20 18 16 13 11 11 10 9 9 12 16 19 20 19 19 21 22 21 20 21 22 22 21 22 22 22 20 19 20 21 23 24 24 24 23 21 20 19 19 19 18 17 16 16 16 16
Wind_Direction
243 244 244 244 245 246 249 251 253 255 256 257 258 258 258 258 257 256 255 254 254 255 257 259 261 262 262 262 262 261 259 257 254 251 248 245 242 239 235 233 231 230 231 234 236 234 230 227 228 232 236 235 230 222 219 219 222 225 227 228 228 228 228 229 230 228 224 217 209 197 184 176 175 176 179 182 184 186 190 191 193 194 193 194 194 194
248 248 249 249 251 252 255 256 258 258 259 260 260 260 260 259 258 257 257 256 256 258 260 262 263 264 263 263 262 261 259 257 254 250 245 242 240 238 235 232 231 231 233 236 236 233 229 226 227 230 232 228 221 216 218 222 227 229 230 230 228 227 225 226 225 222 218 217 214 209 202 192 184 180 180 181 183 184 186 189 191 194 197 199 201 203
256 255 254 254 254 256 258 259 260 260 259 259 259 259 258 258 257 257 257 257 258 260 262 263 265 265 264 263 262 260 258 256 253 248 243 239 238 237 235 234 233 234 236 238 236 232 228 225 225 227 225 220 216 217 223 230 235 236 236 234 231 228 225 222 220 219 218 213 210 209 210 207 200 193 188 185 184 184 186 189 191 195 198 203 206 209
261 259 259 259 259 259 260 261 261 260 258 256 256 256 256 256 257 257 258 259 261 263 265 266 266 265 263 261 260 259 257 255 252 248 243 240 239 238 237 237 237 238 238 237 234 230 227 224 223 222 218 215 217 224 233 240 242 241 239 236 233 230 226 222 220 220 220 211 206 206 209 210 208 204 200 197 195 194 195 196 198 200 203 206 209 211
261 261 262 263 264 264 264 263 262 260 258 256 256 257 258 259 260 261 262 263 265 266 267 267 266 263 260 257 256 257 256 254 251 248 243 240 239 238 236 236 236 236 236 234 230 227 223 222 220 218 215 216 222 233 241 244 243 240 238 234 231 227 224 220 218 218 215 207 202 201 203 205 205 205 205 205 206 207 208 209 211 212 214 215 215 213
261 261 264 266 267 267 268 267 265 263 262 262 261 262 264 266 267 268 268 269 268 268 267 266 263 259 255 253 254 255 255 254 252 248 243 239 236 233 231 230 230 230 231 229 226 223 221 220 218 216 215 219 228 237 241 241 238 235 232 229 225 221 217 214 212 210 206 200 196 195 196 197 198 199 202 205 207 210 213 217 220 223 225 226 223 219
260 260 262 264 266 267 268 268 267 266 265 266 267 268 268 269 270 270 271 271 270 269 267 263 260 256 252 251 252 254 255 255 253 249 244 239 233 227 223 222 222 223 223 222 221 219 218 218 217 217 217 222 229 234 235 232 229 228 226 222 218 214 210 207 204 201 196 193 192 192 193 194 196 199 201 203 206 209 212 215 220 225 229 230 228 224
258 258 259 260 262 264 266 266 266 265 264 265 266 267 268 268 268 267 268 269 269 268 267 263 259 255 252 251 252 254 256 256 254 249 244 237 230 223 219 218 217 218 218 218 217 217 216 217 217 217 218 222 225 226 224 222 221 221 219 215 212 209 206 204 200 195 192 190 191 193 195 197 199 202 205 207 209 211 213 216 220 225 229 231 230 227
254 256 257 256 256 258 261 263 264 264 263 261 260 260 262 264 265 265 266 266 267 268 268 267 264 261 256 254 253 254 255 255 253 248 242 234 228 222 219 217 217 217 218 218 218 217 217 217 217 217 218 220 219 217 215 215 215 215 212 210 208 207 206 205 201 196 192 191 193 195 197 200 202 205 208 211 214 216 219 222 225 228 230 231 232 231
250 252 254 256 256 255 255 259 262 263 261 259 258 257 256 256 258 261 262 263 265 266 267 268 268 267 265 262 258 256 255 253 250 245 239 233 229 226 222 220 219 220 220 221 220 219 217 216 216 216 216 215 213 211 210 211 212 211 208 206 206 207 208 208 205 201 197 195 195 197 199 202 204 206 210 213 216 220 224 228 232 235 237 237 237 238
249 250 251 254 256 256 254 255 258 260 260 257 256 255 254 252 250 251 255 259 262 264 265 266 267 268 269 269 266 261 257 253 248 240 233 230 228 227 225 223 223 222 222 222 221 219 216 215 214 213 212 209 208 207 208 209 209 208 206 205 205 206 208 209 209 206 203 200 199 200 201 204 206 209 211 215 219 223 228 232 237 241 244 246 246 247
248 249 249 250 252 253 253 253 255 257 255 249 245 245 246 246 245 244 246 253 258 261 263 266 267 268 269 269 268 265 260 254 245 234 225 221 220 220 220 220 220 221 219 218 217 215 214 212 211 210 207 205 205 206 207 208 208 207 206 206 207 207 208 209 210 210 208 206 205 205 206 209 211 215 219 223 227 231 236 240 245 248 251 253 254 255
246 246 246 246 247 248 250 248 249 248 245 239 235 238 243 244 243 243 244 250 254 258 261 264 266 267 267 266 265 263 259 251 240 229 219 214 212 212 212 213 214 214 212 209 208 207 208 207 207 207 205 203 204 206 208 209 209 208 208 208 209 209 209 209 210 212 212 213 213 214 217 220 224 229 234 239 243 247 250 253 255 257 258 259 260 260
243 242 241 241 242 244 245 242 243 243 240 237 237 239 243 245 244 243 243 247 251 255 257 259 262 264 265 263 261 257 252 243 233 224 216 211 209 209 209 209 210 211 208 203 201 201 201 202 202 203 203 203 204 206 208 209 210 210 210 210 211 212 212 213 214 216 219 222 225 229 233 238 243 247 252 256 259 261 262 263 263 264 263 264 263 262
242 239 238 240 242 243 242 241 241 243 243 242 241 241 242 243 243 240 238 241 247 252 253 255 258 261 261 258 255 249 242 233 224 216 210 208 208 209 209 208 209 210 207 201 199 199 200 200 201 201 202 203 206 208 209 210 211 211 211 212 213 213 215 217 219 222 226 231 237 243 249 253 257 260 263 265 266 267 267 267 266 265 265 264 263 260
241 239 238 241 244 245 244 240 240 242 244 244 243 239 236 236 237 236 235 237 242 244 244 247 253 258 260 256 250 241 232 224 218 212 207 204 205 206 207 207 207 207 204 200 198 198 200 201 202 202 203 205 208 210 211 212 212 212 212 213 213 214 216 218 221 225 230 236 243 249 254 258 261 263 264 266 266 267 266 266 265 264 263 261 258 253
240 238 238 241 244 246 245 242 240 241 243 243 240 237 234 233 234 234 233 233 233 233 233 233 235 248 257 252 245 236 225 217 213 211 208 205 204 204 205 206 206 205 203 199 198 199 200 201 203 204 205 207 209 212 213 213 213 213 213 213 214 215 217 219 222 226 231 236 242 247 252 255 258 261 263 264 264 264 262 261 260 259 258 255 249 242
236 235 236 240 244 246 245 242 242 242 240 238 237 236 235 234 235 235 233 230 226 225 227 227 226 225 226 233 236 231 222 214 210 209 209 208 207 205 204 206 207 207 204 200 200 201 202 203 205 206 207 209 210 212 213 214 214 213 213 214 215 217 220 222 225 229 232 236 241 245 249 252 255 258 259 260 260 258 255 253 252 251 249 244 236 227
235 232 232 238 244 246 245 242 240 238 234 231 231 232 232 233 233 232 230 229 227 225 223 223 226 228 229 232 234 230 222 213 209 208 209 211 211 208 205 204 207 208 206 203 202 202 203 205 207 208 209 210 211 213 214 214 214 214 214 216 218 221 224 227 230 233 236 239 243 246 249 251 253 254 254 254 251 248 244 242 240 239 236 231 223 215
238 236 236 238 241 244 244 242 239 236 233 231 231 230 229 231 230 228 228 227 226 225 224 223 225 229 231 232 233 230 224 213 208 207 210 213 213 210 206 203 204 206 206 205 204 204 204 206 207 209 210 211 213 214 215 216 216 216 216 218 221 223 226 228 231 233 236 239 242 244 244 245 245 246 246 245 242 237 231 228 227 226 224 220 215 208
239 238 237 235 236 239 242 242 241 240 237 234 230 227 227 228 228 226 226 224 223 223 222 223 227 229 230 229 228 228 225 213 206 205 212 214 215 213 209 204 203 205 206 206 205 204 204 206 208 209 210 211 213 215 216 217 216 217 217 219 220 222 223 225 226 228 230 234 236 235 232 231 232 235 237 237 233 226 220 217 216 216 215 213 209 204
239 241 241 239 236 236 239 242 244 242 239 234 228 224 224 225 225 224 224 222 220 220 222 226 230 232 230 228 227 228 227 217 208 204 209 213 218 217 212 206 204 205 207 208 207 205 204 206 208 210 211 211 213 215 216 217 217 217 217 217 216 216 218 219 221 223 226 230 230 225 221 220 222 227 230 230 226 218 212 210 210 210 209 207 205 202
240 242 243 242 240 239 241 242 243 242 240 235 231 229 230 229 228 227 227 226 224 224 225 227 229 231 230 228 227 227 227 222 213 207 205 210 218 218 214 208 205 206 209 210 209 206 205 206 208 210 211 211 212 214 216 216 216 216 215 213 211 211 214 217 220 224 228 230 226 219 214 214 217 220 224 224 220 214 208 206 205 205 204 204 203 201
242 243 244 244 244 243 243 242 241 240 240 238 238 239 239 240 239 239 239 237 233 230 228 228 228 230 229 226 225 224 224 222 214 208 205 212 218 218 214 209 206 207 211 213 211 208 206 206 208 209 209 209 211 213 215 216 216 214 212 208 207 208 212 217 222 227 231 230 223 214 209 210 213 215 217 219 217 212 207 205 203 203 203 203 203 201
243 243 244 245 246 247 246 244 242 240 239 240 241 243 245 245 245 243 241 238 232 227 224 221 221 223 225 223 221 221 221 219 213 207 205 212 217 217 215 210 207 206 211 214 214 211 208 207 208 209 208 207 208 210 213 214 214 212 208 205 205 207 212 217 223 229 232 230 220 211 208 208 209 211 212 214 213 210 206 204 203 203 203 203 203 200
247 247 248 248 249 250 249 248 245 242 241 241 242 244 245 244 241 236 231 225 219 214 209 207 212 218 219 215 214 216 217 216 212 208 206 209 211 212 213 211 207 206 210 214 215 212 209 208 208 208 208 205 204 206 210 211 211 208 205 204 204 207 211 216 222 227 230 227 218 210 207 207 207 208 209 209 209 207 205 204 203 202 202 202 202 200
252 252 252 252 253 253 252 250 247 244 242 242 243 244 244 240 232 224 218 214 210 204 198 204 215 219 215 212 213 214 214 212 210 209 208 207 206 208 210 209 206 205 208 213 214 212 209 209 209 208 208 205 203 201 203 206 207 206 204 203 205 208 212 216 221 225 227 224 216 209 207 206 207 207 208 207 207 206 204 203 202 201 201 200 199 199
255 254 254 254 254 254 254 252 249 246 244 243 243 243 241 233 223 215 213 212 207 202 201 208 215 217 213 213 213 213 212 210 209 209 207 205 206 210 208 206 203 202 204 207 210 210 208 208 209 208 207 206 203 200 198 200 203 204 204 204 207 210 213 217 220 223 224 221 214 208 206 206 206 207 207 207 206 205 203 201 200 200 200 201 201 201
255 255 255 255 254 254 254 253 251 249 245 244 242 240 237 230 223 219 219 215 207 201 206 214 217 218 214 209 207 208 210 211 210 209 205 203 206 212 208 200 198 198 198 197 201 206 208 209 209 208 206 205 204 200 197 196 198 201 204 206 209 212 215 217 220 222 221 218 212 208 206 205 206 207 206 206 205 203 202 200 199 200 201 204 206 207
252 252 253 253 253 252 252 251 251 250 247 245 242 238 235 232 228 226 224 218 208 203 209 215 217 214 202 185 183 200 212 215 213 209 203 200 202 206 201 193 193 195 194 186 182 200 214 214 212 209 205 204 203 202 199 197 198 200 202 206 209 213 216 218 219 220 219 215 210 207 205 205 206 206 206 205 204 203 201 199 199 202 205 207 211 214
248 248 248 249 249 249 248 248 248 248 247 245 242 238 234 232 230 229 226 220 213 209 211 214 214 207 193 172 159 190 218 216 215 210 203 199 202 204 197 189 191 195 195 188 179 172 221 221 216 212 207 205 203 203 202 202 202 202 204 205 208 211 214 216 217 217 215 212 208 206 205 205 205 205 205 205 204 202 200 198 200 204 208 210 214 218
247 247 246 247 247 246 245 244 244 244 244 243 241 238 234 232 231 229 227 223 218 215 212 212 211 206 199 199 202 208 214 212 213 211 204 200 202 205 201 192 191 193 194 193 190 185 176 205 213 212 209 207 205 205 205 206 207 207 208 208 210 211 213 214 214 213 211 209 207 206 205 205 206 205 205 205 204 203 201 199 202 207 210 213 216 221
246 246 246 246 245 244 242 241 240 240 240 240 239 237 235 234 233 232 229 227 224 220 216 213 210 207 206 208 212 216 216 213 214 212 205 201 199 201 200 195 192 191 192 193 193 192 184 179 190 202 208 208 208 207 207 208 210 211 212 213 213 214 213 212 210 208 206 205 205 205 206 206 206 205 204 204 204 203 202 202 205 211 215 217 221 225
243 243 243 243 241 240 239 238 237 236 236 237 237 237 236 235 235 233 232 229 227 225 222 218 214 209 206 208 214 218 218 217 217 214 207 200 199 200 199 193 190 189 189 191 193 195 189 178 170 178 200 207 209 209 209 209 211 212 214 215 216 215 214 211 208 205 204 202 202 203 204 205 205 204 203 202 202 203 203 202 206 212 219 223 226 229
238 238 238 237 236 236 235 234 233 233 233 234 236 237 237 236 235 234 232 231 229 228 227 225 223 219 214 210 211 215 215 218 219 215 207 202 201 201 197 194 192 190 187 190 193 192 180 176 173 169 176 196 206 210 211 210 211 212 213 215 216 216 215 212 208 205 203 201 200 200 202 204 205 204 202 201 200 201 201 200 203 210 220 226 230 232
231 232 232 231 230 230 230 230 231 231 232 233 235 236 236 236 235 234 232 231 230 229 229 229 228 227 225 222 220 219 219 221 220 216 210 207 205 203 198 197 196 193 189 190 193 193 184 176 174 172 167 174 194 207 211 211 210 210 212 213 214 214 214 213 210 207 204 202 200 200 200 203 204 204 202 201 199 197 197 197 200 206 215 224 231 234
226 227 227 226 226 225 226 228 229 230 231 233 234 235 235 234 233 232 231 231 230 230 229 228 228 227 228 229 229 229 229 228 225 219 214 212 210 207 203 202 201 198 193 191 192 192 188 176 169 168 167 170 180 195 204 207 209 209 210 211 211 211 211 211 211 209 206 203 201 200 200 203 204 202 199 197 195 194 193 194 196 201 208 218 227 232
221 223 224 223 223 223 224 225 227 229 231 232 234 234 233 231 229 229 229 229 229 228 227 226 226 225 226 227 228 231 233 232 228 223 219 216 214 211 207 205 204 203 201 198 195 192 188 183 177 176 183 186 187 189 193 198 202 205 208 209 209 209 209 210 210 209 207 205 202 201 201 204 204 201 196 195 194 194 193 194 195 197 200 205 214 223
217 219 221 221 222 222 223 224 226 229 231 232 233 233 232 230 228 227 226 226 225 225 225 224 224 224 224 225 226 227 229 230 229 227 224 221 218 215 211 208 205 205 205 204 200 196 193 194 195 194 191 190 190 191 192 193 197 200 203 205 207 209 209 209 209 209 208 206 203 201 202 204 204 201 197 198 199 199 198 199 200 200 200 202 205 210
216 218 220 221 222 223 223 226 228 229 230 230 231 231 231 229 227 226 225 224 222 221 221 222 223 223 224 223 223 224 225 226 227 226 225 224 222 219 215 212 210 208 206 203 201 199 197 199 202 201 196 192 188 185 186 191 195 197 197 197 203 208 209 208 208 208 208 206 204 202 202 204 204 203 202 204 206 208 208 207 208 209 210 210 209 209
217 219 222 223 224 226 226 227 228 227 226 226 227 228 228 227 226 225 223 222 219 218 218 219 219 220 220 221 220 220 220 220 221 223 224 225 225 222 219 216 214 211 207 203 201 201 201 202 203 202 199 197 193 188 186 190 194 195 192 193 199 204 206 206 206 206 206 206 205 204 203 204 205 205 205 208 212 216 218 218 218 220 221 221 219 216
218 220 222 223 224 224 225 224 223 222 223 223 223 223 225 224 223 221 219 217 214 214 214 213 213 212 212 213 215 215 215 216 218 221 223 225 225 222 220 217 216 214 209 204 201 201 202 202 202 201 199 197 192 188 189 193 194 194 194 194 196 198 201 204 205 204 204 205 205 205 204 204 205 206 207 210 214 218 222 224 226 227 228 227 226 224
219 222 224 223 222 221 219 217 216 216 216 217 218 220 222 222 221 218 215 212 210 210 210 209 208 205 203 203 205 208 210 213 216 219 222 223 222 221 219 218 217 215 211 204 199 199 202 203 203 203 202 199 195 189 187 189 191 193 194 195 191 186 189 200 202 201 201 203 204 204 205 206 206 207 209 212 215 219 222 225 227 229 229 228 226 225
219 221 222 220 218 215 212 209 209 209 210 210 211 215 218 218 217 214 211 209 208 207 206 204 203 200 196 195 196 200 203 207 212 215 217 218 217 217 217 217 217 217 215 206 199 197 198 200 203 205 205 202 198 194 190 188 189 191 193 194 193 191 190 195 196 196 198 200 203 205 207 207 208 209 211 214 217 220 223 226 227 228 228 228 226 225
218 217 216 213 210 206 203 202 203 204 205 206 207 209 211 212 211 208 205 204 204 203 200 198 193 187 186 190 191 191 194 198 202 206 208 210 210 211 213 215 216 217 216 211 206 201 197 195 198 202 203 202 200 197 194 191 191 192 193 194 196 199 201 199 195 194 195 197 200 204 207 208 209 210 212 215 218 221 224 226 228 228 229 229 229 228
212 210 207 206 203 200 199 199 199 199 199 200 202 204 206 206 205 203 202 201 199 197 196 194 188 183 183 185 185 183 183 187 193 198 201 202 203 205 208 211 214 215 214 213 211 209 206 201 198 197 195 196 198 200 200 198 194 192 192 193 195 199 202 202 198 196 196 197 199 202 204 207 208 210 211 214 218 222 225 227 229 230 232 233 233 233
205 203 201 200 199 198 197 196 195 193 192 193 195 198 201 201 199 197 197 198 196 193 191 189 188 188 187 183 181 178 176 177 183 190 195 197 198 199 202 205 209 212 212 211 210 211 212 211 208 202 195 190 191 196 201 203 200 195 192 193 194 196 199 201 200 199 199 198 199 200 202 204 206 209 212 215 219 222 226 228 230 232 235 237 238 238
202 200 199 198 196 194 193 191 190 188 187 188 190 193 196 196 194 191 190 192 192 189 185 184 185 186 184 183 182 180 179 177 177 181 186 190 192 194 195 197 200 203 206 206 207 208 210 213 214 212 207 199 194 193 196 200 202 200 196 194 193 195 198 200 201 201 201 201 202 202 203 203 204 206 210 213 217 222 225 228 230 233 235 238 240 240
202 199 197 195 193 190 189 188 187 186 185 185 186 188 191 192 191 189 188 188 188 186 183 182 182 180 177 177 179 180 179 176 176 177 180 183 185 186 188 190 192 194 196 199 202 204 207 210 213 215 216 211 205 199 197 199 201 202 200 197 195 195 197 199 200 201 201 203 205 206 206 207 208 209 210 210 214 220 225 228 231 233 235 237 239 239
202 198 196 193 191 189 189 188 187 186 186 184 183 183 185 186 187 188 188 187 186 184 183 183 181 178 175 174 175 174 173 172 172 173 176 179 180 180 180 181 182 182 181 182 187 192 196 200 207 212 215 216 214 209 203 199 199 200 199 198 198 197 197 197 198 199 200 203 206 208 209 210 211 213 213 212 215 220 226 231 232 233 233 235 236 236
200 197 195 193 192 191 190 189 188 187 187 185 183 182 181 181 182 183 185 184 184 184 185 185 183 180 177 175 174 172 172 171 171 171 174 176 177 175 174 175 174 170 166 163 165 169 172 179 194 208 213 213 214 215 213 204 197 194 193 197 199 199 197 197 197 198 198 201 204 206 207 208 210 212 213 213 214 218 226 231 233 233 231 231 231 231
Height
768 768 768 769 769 769 769 769 769 770 770 770 771 771 771 771 772 772 772 772 773 773 773 773 773 774 774 774 774 774 774 774 775 775 775 775 775 776 776 777 777 777 777 778 778 779 779 779 780 780 781 781 782 783 783 784 785 785 786 787 787 788 788 789 790 790 791 791 791 791 791 791 791 791 792 792 793 793 794 795 796 797 798 798 799 800
768 768 768 768 768 768 768 768 768 769 769 769 769 770 770 770 770 770 771 771 771 771 772 772 772 773 773 773 773 773 773 773 773 773 773 774 774 775 775 775 775 776 776 777 778 778 778 779 779 779 779 780 781 782 782 783 784 784 785 786 786 787 788 788 789 790 791 791 790 790 790 790 791 791 791 792 792 793 793 794 795 796 797 798 799 799
767 767 767 767 767 767 767 767 768 768 768 768 768 768 768 769 769 769 769 769 769 770 770 770 771 771 771 771 772 772 772 772 772 773 773 773 773 773 774 774 774 775 775 776 777 777 778 778 778 778 779 779 780 781 781 782 783 783 784 785 785 786 787 788 788 789 790 790 790 789 790 790 791 791 791 791 792 792 793 793 794 795 796 797 798 799
766 766 765 765 766 766 766 766 767 767 767 767 767 767 767 767 767 767 768 768 768 768 769 769 769 770 770 770 770 770 770 771 771 771 771 771 772 772 773 773 773 774 774 775 775 776 777 777 777 778 778 778 779 779 780 781 782 783 783 784 784 785 786 787 788 789 789 789 788 788 789 789 790 791 791 791 792 792 792 793 793 794 795 796 797 798
764 764 764 764 764 764 765 765 766 766 766 766 766 766 766 766 766 766 766 766 767 767 767 768 768 768 768 768 768 769 769 769 769 770 770 770 770 770 771 771 772 773 773 773 774 775 775 776 776 777 777 777 778 778 779 780 781 781 782 783 783 784 785 786 787 788 788 788 787 787 788 789 789 790 791 791 791 792 792 793 793 794 795 795 796 797
763 763 763 763 763 763 763 764 764 764 764 764 764 764 764 764 764 764 764 765 765 765 766 766 766 767 767 767 767 767 767 768 768 768 769 769 769 769 769 770 770 771 771 772 773 773 774 775 775 776 776 776 776 777 778 779 780 780 781 782 782 783 784 785 786 786 786 786 786 787 787 788 788 789 790 791 791 792 792 793 793 793 794 795 796 797
762 762 762 762 762 762 763 763 763 763 763 763 763 763 763 763 763 763 763 763 763 764 764 764 765 765 765 766 766 766 766 766 767 767 768 768 768 768 768 768 769 769 770 771 771 772 773 774 774 775 775 774 775 776 777 778 778 779 780 781 782 783 783 784 785 785 785 785 785 785 786 787 788 788 789 790 791 791 792 792 793 793 794 794 795 796
761 761 761 761 761 761 761 761 761 762 762 762 762 762 762 762 762 762 762 762 762 763 763 763 763 764 764 764 765 765 765 765 765 766 766 767 767 767 767 768 768 768 769 770 771 772 772 773 773 774 773 773 774 775 776 777 778 778 779 780 781 782 783 783 783 783 783 784 784 784 785 786 787 788 788 789 790 790 791 791 792 793 793 794 795 795
759 759 759 759 759 760 760 759 759 760 760 761 761 761 761 760 760 761 761 761 761 761 762 762 762 762 763 763 763 764 764 764 764 765 765 766 766 766 767 767 767 768 768 769 770 771 771 772 773 773 773 773 773 774 775 776 777 778 778 779 780 781 782 782 783 783 783 783 783 783 784 785 786 787 788 788 789 790 790 791 792 792 793 793 794 795
758 758 758 758 758 758 758 758 758 758 758 759 759 759 759 759 759 759 759 759 759 760 760 761 761 761 761 762 762 763 763 763 763 764 764 764 765 765 766 766 767 767 768 768 769 770 770 771 771 771 772 772 773 773 774 775 776 777 778 778 779 780 781 781 782 782 782 782 783 783 784 785 786 787 787 788 788 789 790 790 791 792 792 793 793 794
756 756 756 756 756 756 757 756 756 756 757 757 758 757 757 757 758 758 758 757 757 758 758 759 759 759 760 760 761 761 762 762 762 763 763 763 764 764 765 765 766 766 767 768 768 769 769 769 770 770 771 771 772 772 773 774 775 776 777 778 778 779 780 781 781 781 782 782 782 783 783 784 785 786 787 787 788 788 789 790 790 791 791 792 793 793
754 754 755 755 754 754 754 754 754 755 755 756 756 755 755 755 756 757 757 756 756 756 757 757 758 758 758 758 759 759 760 761 761 762 762 762 763 763 764 764 765 766 767 767 768 768 768 768 769 769 770 770 771 771 772 773 774 775 776 777 778 778 779 780 780 781 781 782 782 783 783 784 784 785 786 786 787 788 788 789 789 790 791 791 792 792
752 753 753 753 753 753 753 753 753 753 753 754 754 753 753 753 754 755 755 755 755 755 756 756 756 756 757 757 758 758 758 759 760 760 761 761 761 762 762 763 764 765 766 766 767 768 768 768 768 769 769 769 770 771 771 772 773 774 775 776 777 778 778 779 780 780 781 781 782 782 783 783 784 784 785 785 786 787 787 788 788 789 789 790 791 791
750 751 751 751 751 750 750 751 751 751 751 751 751 751 752 752 753 753 754 753 753 754 755 755 754 754 755 755 756 757 757 758 759 759 759 759 759 760 761 762 763 763 764 765 766 766 767 767 768 768 768 769 769 770 771 772 772 773 774 775 776 777 778 778 779 779 780 781 781 782 782 782 783 783 784 784 785 785 786 787 787 788 788 789 789 790
748 749 749 749 748 748 748 749 749 749 748 749 749 750 751 751 752 752 752 752 752 753 753 754 753 753 753 753 754 755 756 757 758 758 758 758 758 759 760 760 761 762 763 764 764 765 766 766 767 767 768 768 768 769 770 771 771 772 773 774 775 776 777 777 778 779 779 780 780 781 781 781 782 782 783 783 784 784 785 785 786 786 787 788 788 789
747 747 747 746 746 746 746 747 747 747 747 747 748 749 749 750 750 750 751 751 751 752 753 753 753 752 752 752 753 754 755 756 756 756 757 757 758 758 759 759 760 761 762 763 763 764 764 765 765 766 766 767 768 768 769 770 771 771 772 773 774 775 776 777 777 778 778 779 779 780 780 781 781 782 782 783 783 783 784 784 785 785 786 786 787 788
744 744 744 744 744 743 744 744 745 745 745 746 747 747 748 748 748 749 749 749 750 751 751 752 752 752 751 750 751 752 753 754 755 755 756 756 757 757 758 758 759 759 760 761 762 763 763 764 764 765 766 766 767 768 768 769 770 770 771 772 773 774 775 775 776 777 778 778 778 779 779 780 780 781 781 782 782 783 783 783 784 784 785 785 786 787
742 742 742 742 742 742 742 743 743 743 744 744 745 745 746 746 747 747 747 748 748 749 749 750 750 750 749 749 749 750 751 752 753 754 755 755 755 756 757 758 758 759 759 760 761 761 762 762 763 764 765 765 766 767 768 768 769 770 770 771 772 773 773 774 775 776 776 777 778 778 778 779 779 780 781 781 782 782 782 783 783 783 784 784 785 786
738 739 739 739 739 739 740 740 741 741 742 743 743 744 744 745 745 745 746 746 746 747 747 748 748 747 747 747 747 748 749 751 752 753 753 754 754 755 756 757 758 758 758 759 760 760 761 762 762 763 764 765 766 766 767 768 768 769 770 770 771 772 773 773 774 775 775 776 777 777 778 778 778 779 780 780 781 781 782 782 782 783 783 784 784 785
736 736 736 737 737 738 738 738 738 739 740 741 742 743 743 743 743 743 744 744 744 744 745 745 745 745 745 746 746 747 748 749 751 752 752 753 753 754 754 755 756 757 758 758 759 760 760 761 762 763 764 764 765 766 766 767 768 768 769 770 770 771 772 773 773 774 775 775 776 777 777 778 778 778 779 779 780 780 781 781 782 783 783 783 784 784
733 733 733 734 735 736 735 735 735 737 738 739 740 740 740 741 741 742 742 742 743 743 743 743 743 743 743 744 745 745 746 748 749 750 751 752 752 753 753 754 755 756 757 758 758 759 760 760 761 762 763 764 764 765 765 766 767 768 768 769 769 770 771 772 773 773 774 775 775 776 776 777 777 778 778 779 779 780 780 781 782 782 783 783 783 784
730 730 730 731 733 733 732 733 733 735 736 737 738 738 738 739 739 739 740 740 741 741 741 741 740 741 742 743 743 743 744 746 747 748 749 751 751 751 752 753 754 755 756 756 757 758 759 760 761 761 762 763 763 764 765 765 766 767 768 768 768 769 770 771 772 773 773 774 774 775 776 776 777 777 778 778 779 779 780 781 781 782 782 783 783 784
727 727 728 729 729 729 730 731 732 733 734 735 735 735 736 737 737 737 737 738 738 738 738 738 739 739 740 741 741 742 743 744 745 747 748 749 749 749 750 752 753 754 755 755 756 757 758 759 760 761 762 762 763 763 764 765 765 766 767 767 768 768 769 770 771 772 772 773 773 774 775 775 776 777 777 778 778 779 779 780 781 781 782 782 783 783
725 725 725 726 727 727 728 729 730 731 732 733 733 733 734 734 735 735 735 735 736 736 737 737 738 738 738 739 740 741 741 743 744 745 747 747 747 747 749 751 752 753 754 754 755 757 758 758 759 760 761 762 762 763 763 764 764 765 766 766 767 768 768 769 770 771 771 772 773 773 774 775 775 776 776 777 778 778 779 779 780 781 781 782 783 783
723 723 723 724 724 725 726 727 728 729 729 730 731 732 733 733 733 734 734 734 734 735 735 736 737 737 737 738 738 739 739 741 742 743 745 745 746 746 747 749 751 752 753 753 754 756 757 758 758 759 760 761 762 762 762 763 763 764 765 765 766 767 768 768 769 770 771 771 772 773 773 774 775 775 776 776 777 778 778 779 780 780 781 781 782 782
721 721 722 722 723 723 724 725 726 727 727 728 729 730 731 732 732 732 732 733 733 733 734 735 735 735 735 736 737 737 738 739 740 741 743 743 744 745 745 747 749 750 752 752 753 755 756 757 757 758 759 760 761 761 762 762 763 763 764 765 766 766 767 768 768 769 770 770 771 772 773 773 774 775 775 776 776 777 778 778 779 780 780 781 781 782
719 719 720 720 721 722 722 723 723 724 725 726 727 728 728 729 730 730 730 730 730 731 732 733 733 733 734 735 735 735 736 737 738 739 740 742 743 743 744 745 747 749 750 751 752 754 755 756 756 757 758 758 759 760 761 761 762 763 763 764 765 766 766 767 768 768 769 770 770 771 772 773 773 774 775 775 776 776 777 778 778 779 780 780 781 781
717 717 718 718 719 719 720 721 721 722 723 724 724 725 726 727 728 727 727 727 728 729 730 731 731 731 732 733 733 733 734 735 736 737 739 741 742 742 742 743 746 748 749 750 751 753 754 755 755 756 757 758 758 758 759 760 761 762 762 763 764 765 765 766 767 768 768 769 770 771 771 772 773 773 774 775 775 776 777 777 778 778 779 779 779 780
714 715 715 716 717 717 718 718 719 720 721 722 722 723 723 724 724 723 723 725 726 728 728 728 728 729 729 730 731 732 733 733 734 735 737 739 740 740 740 742 744 746 747 749 751 752 753 753 753 754 755 756 757 758 758 759 760 761 761 762 763 764 764 765 766 767 768 768 769 770 771 771 772 773 773 774 775 775 776 777 777 778 778 778 779 779
712 712 713 713 714 715 715 716 717 717 718 719 720 721 721 721 721 721 722 723 724 725 725 726 726 727 728 729 731 732 731 731 731 733 735 737 738 738 739 741 743 743 745 748 750 752 752 752 752 753 754 755 756 756 757 757 758 759 760 761 762 763 763 764 765 766 767 767 768 769 770 771 771 772 773 773 774 775 775 776 776 777 777 777 778 778
709 709 710 710 711 712 713 713 714 715 715 717 718 718 718 718 718 719 720 721 721 722 722 723 724 725 726 727 729 729 728 728 728 731 733 735 736 736 737 739 740 741 743 745 748 750 750 750 750 751 752 753 754 755 755 756 757 757 758 759 760 761 762 763 764 765 766 767 767 768 769 770 771 771 772 773 773 774 774 775 776 776 776 777 777 778
706 706 707 708 708 709 710 711 711 712 713 713 714 715 716 716 716 717 718 718 718 719 720 721 722 722 723 724 724 724 724 724 726 728 730 733 734 734 735 737 738 740 741 743 744 745 746 747 748 749 751 752 752 753 754 755 755 756 757 758 759 760 761 762 763 764 765 766 767 767 768 769 770 771 771 772 773 773 774 774 775 775 775 776 777 777
703 703 704 705 706 707 707 708 709 709 710 711 712 712 713 713 714 714 715 715 716 716 718 718 719 720 721 721 721 721 722 722 723 725 728 730 732 733 733 735 737 738 740 741 742 743 743 744 746 747 748 749 750 751 752 753 754 755 756 757 758 759 760 761 762 763 764 765 766 767 768 768 769 770 770 771 772 772 773 773 774 774 774 775 776 777
701 701 702 703 703 704 705 705 706 707 707 708 708 709 710 711 712 712 713 713 713 714 715 716 717 718 718 719 720 720 721 721 722 724 726 728 729 730 732 733 735 737 738 740 741 742 742 743 744 745 746 748 749 750 751 752 753 754 755 756 757 758 759 760 761 762 763 763 764 765 767 767 768 769 769 770 771 772 772 773 773 773 774 774 775 776
698 699 699 700 701 702 702 703 704 704 705 705 706 707 708 708 709 710 710 711 711 712 713 713 714 715 716 717 718 718 719 720 721 722 724 725 727 728 730 731 732 734 736 738 739 740 741 742 743 743 744 746 747 748 749 750 751 753 753 755 756 757 758 759 759 760 762 763 763 764 765 766 767 768 768 769 770 771 772 772 773 773 773 774 775 776
696 696 697 698 698 699 700 701 702 702 703 703 704 704 705 706 707 707 708 708 709 710 711 712 713 713 714 714 715 716 717 718 719 721 722 723 724 726 728 729 730 732 734 736 737 738 740 741 742 742 743 744 746 747 748 748 750 751 752 753 754 756 757 758 758 759 760 761 762 763 764 765 766 767 767 768 769 770 771 772 773 773 773 774 774 775
693 694 694 695 696 697 698 698 699 700 701 701 702 703 703 704 705 705 706 707 708 708 709 710 711 712 713 713 714 714 715 717 718 719 720 722 723 724 725 726 728 729 731 733 735 737 738 740 741 742 743 743 743 744 745 747 748 750 751 752 753 754 755 757 758 758 759 760 761 762 763 764 765 765 766 767 768 769 770 771 772 773 773 774 774 775
690 691 692 693 694 695 695 696 697 698 698 699 700 701 702 703 703 704 704 705 706 707 708 709 710 710 711 712 713 714 714 716 717 718 719 720 721 723 724 725 726 727 728 730 732 734 736 738 740 741 742 742 742 742 743 744 746 748 749 750 752 753 754 755 756 757 758 759 760 761 762 763 764 764 765 766 767 768 769 770 771 772 773 773 774 775
688 688 689 690 691 692 693 693 694 695 696 697 698 699 700 701 702 703 703 704 705 705 706 707 708 709 709 710 712 713 713 714 715 717 718 719 720 721 722 723 724 726 727 729 730 732 733 735 737 738 739 740 741 741 742 743 744 745 747 749 750 752 753 753 755 756 757 758 759 760 761 762 763 763 764 765 766 767 768 769 770 771 772 773 773 774
685 686 687 688 688 689 690 691 692 693 694 695 696 697 698 699 700 701 702 703 703 704 704 705 706 707 708 709 710 711 712 713 714 715 717 718 719 720 721 722 723 724 726 728 729 730 732 733 734 735 736 737 738 740 741 742 743 743 746 748 749 750 750 752 753 754 755 757 758 758 759 761 762 762 763 764 765 766 767 768 769 770 771 772 773 773
683 683 684 685 686 687 687 688 690 691 692 693 694 695 696 698 699 700 700 701 702 702 703 704 705 706 707 708 709 710 711 712 713 714 715 716 718 719 720 721 722 723 724 726 728 729 730 731 733 734 735 736 737 738 739 740 741 742 744 745 746 747 748 750 752 753 754 755 756 757 758 759 760 761 762 763 764 765 766 768 768 769 770 771 772 773
680 681 682 683 683 684 685 687 688 689 690 691 692 693 694 695 697 698 699 699 700 701 701 702 703 704 706 707 708 708 709 710 712 713 714 715 717 718 719 720 721 722 723 725 726 728 729 730 732 733 734 735 736 738 739 739 740 741 743 743 744 746 748 749 750 751 753 754 755 756 757 758 759 760 761 762 763 765 766 767 768 768 769 770 771 772
678 678 679 681 682 683 683 685 686 687 688 689 690 691 692 693 694 696 697 698 698 699 700 701 702 703 704 705 706 707 708 709 710 711 713 714 715 717 718 718 719 721 722 723 725 727 728 729 731 732 732 734 735 736 738 739 740 741 742 743 744 745 747 747 748 749 751 752 753 754 756 757 758 759 760 762 763 764 765 766 767 768 768 769 770 770
675 676 678 679 679 680 681 682 683 684 685 686 688 688 690 691 692 694 695 696 697 698 698 699 700 702 703 704 705 706 707 708 709 710 712 713 714 715 716 718 718 720 721 722 723 725 727 729 730 731 732 733 734 735 736 737 738 739 741 742 743 743 743 743 745 747 749 751 752 753 754 756 757 758 760 761 762 763 764 765 765 766 767 768 768 769
673 674 675 676 677 678 679 680 681 682 683 684 685 686 688 689 691 692 693 695 696 697 697 698 699 701 703 703 704 705 706 707 708 710 711 712 713 714 716 717 718 719 720 721 723 724 726 727 728 730 731 733 734 734 735 736 737 738 739 740 741 742 742 743 743 745 747 749 750 752 753 755 756 758 759 760 761 762 763 763 764 765 766 766 767 768
670 672 673 674 675 676 676 677 678 680 681 682 683 684 686 687 689 690 692 693 694 695 696 697 698 700 701 702 703 704 705 706 708 709 710 711 712 713 715 716 718 719 720 721 723 724 724 726 727 729 731 732 733 734 734 735 736 737 738 739 740 742 742 743 744 744 745 747 748 750 752 754 755 757 758 758 759 760 761 762 763 764 764 765 766 767
668 669 670 671 673 674 675 676 677 678 679 681 682 683 684 685 687 689 690 691 693 694 695 696 697 698 699 700 701 703 704 705 707 708 709 710 712 713 714 716 717 719 720 722 723 724 725 726 727 728 729 731 732 733 733 734 735 736 737 738 739 740 741 742 743 743 744 746 747 749 751 753 754 755 756 757 758 759 760 761 762 763 763 764 764 765
665 667 668 669 671 672 673 674 675 677 678 679 680 681 682 684 685 687 688 690 691 693 694 695 696 697 698 699 700 701 703 704 705 707 708 709 711 712 713 715 717 718 720 721 723 723 725 726 727 728 728 729 730 731 732 733 734 734 735 737 738 739 740 741 742 743 744 745 747 748 749 751 752 753 754 756 757 758 759 759 760 761 762 763 763 764
663 664 665 667 669 670 671 673 673 675 676 677 678 680 681 683 684 685 686 688 689 691 693 694 695 696 697 698 699 701 702 703 704 706 707 708 710 711 713 714 716 718 719 721 722 723 724 725 726 727 728 728 729 730 731 732 733 734 735 736 737 738 738 740 741 742 743 745 746 747 748 750 751 752 753 754 756 757 757 758 759 760 761 761 762 763
661 662 663 665 666 668 669 670 672 673 674 675 677 678 680 681 683 684 685 686 688 689 691 692 693 694 696 697 698 700 701 703 704 705 706 708 708 710 712 713 715 717 719 721 722 723 724 725 726 727 727 728 729 729 730 731 732 733 734 735 736 737 738 739 740 741 743 744 745 747 748 749 750 752 753 754 754 755 756 757 758 758 759 760 761 761
660 660 661 663 664 665 667 668 670 671 672 674 675 676 678 680 681 683 684 685 687 688 689 691 692 693 694 696 698 699 700 701 703 704 705 707 708 709 710 712 714 716 718 720 722 723 724 725 726 726 727 727 728 728 729 729 731 732 733 734 735 736 737 738 739 740 742 743 744 745 747 748 749 751 752 753 754 755 755 756 757 757 758 759 759 760